CST,Max TemperatureF,Mean TemperatureF,Min TemperatureF,Max Dew PointF,MeanDew PointF,Min DewpointF,Max Humidity, Mean Humidity, Min Humidity, Max Sea Level PressureIn, Mean Sea Level PressureIn, Min Sea Level PressureIn, Max VisibilityMiles, Mean VisibilityMiles, Min VisibilityMiles, Max Wind SpeedMPH, Mean Wind SpeedMPH, Max Gust SpeedMPH,PrecipitationIn, CloudCover, Events, WindDirDegrees
2014-2-1,12,4,-4,6,-3,-9,83,73,63,30.28,30.13,29.88,10,10,10,26,10,32,0.00,5,,311
2014-2-2,15,5,-5,5,0,-8,87,73,59,30.27,30.20,30.15,10,10,10,18,9,21,T,4,Snow,199
2014-2-3,18,8,-3,8,-1,-11,87,73,59,30.51,30.32,30.19,10,10,7,24,8,30,T,7,Snow,289
2014-2-4,2,-6,-14,-8,-13,-20,72,67,61,30.69,30.64,30.53,10,10,10,14,6,16,0.00,0,,332
2014-2-5,2,-1,-5,-5,-9,-12,79,72,65,30.74,30.67,30.55,10,8,2,20,10,22,T,7,,323
2014-2-6,9,0,-10,3,-6,-17,79,74,68,30.57,30.33,30.17,10,8,2,18,13,22,T,5,Snow,256
2014-2-7,10,2,-6,-2,-9,-15,78,68,58,30.15,30.13,30.10,10,10,10,17,11,22,0.00,0,,216
2014-2-8,3,-6,-16,-5,-12,-21,86,78,70,30.41,30.24,30.14,10,10,10,16,7,18,0.00,1,,332
2014-2-9,0,-7,-14,-10,-15,-20,79,69,58,30.54,30.46,30.31,10,10,10,17,7,20,0.00,0,,299
2014-2-10,1,-9,-20,-11,-17,-23,79,69,58,30.61,30.56,30.47,10,10,10,10,3,13,0.00,0,,231
2014-2-11,21,6,-10,16,4,-14,84,76,68,30.45,30.02,29.80,10,6,1,32,18,41,T,5,Snow,169
2014-2-12,17,5,-8,12,-2,-12,82,72,61,30.25,29.97,29.43,10,9,0,32,10,40,T,3,Snow,159
2014-2-13,27,12,-4,22,5,-10,84,77,69,29.96,29.62,29.29,10,3,0,38,20,46,0.04,6,Fog-Snow,320
2014-2-14,8,-1,-11,-1,-9,-17,79,72,64,30.19,30.09,29.95,10,10,2,14,8,18,0.00,0,,339
2014-2-15,19,10,1,10,3,-4,83,75,66,30.26,29.95,29.75,10,7,1,26,16,31,0.00,6,Snow,340
2014-2-16,20,6,-8,12,3,-11,87,75,62,30.25,30.04,29.78,10,9,2,28,14,38,T,6,Snow,145
2014-2-17,34,27,20,26,20,12,84,76,68,29.80,29.68,29.56,10,6,1,25,11,31,0.07,5,Snow,187
2014-2-18,38,27,16,27,21,14,84,74,64,29.78,29.64,29.51,10,10,10,14,8,17,0.00,1,,237
2014-2-19,41,27,13,29,21,12,88,71,54,29.78,29.65,29.51,10,10,8,22,10,31,0.00,1,,174
2014-2-20,34,20,5,30,15,1,92,83,73,29.76,29.66,29.54,10,8,2,28,13,33,T,6,Snow,330
2014-2-21,14,8,1,5,-1,-6,87,77,66,29.91,29.73,29.63,10,10,7,28,19,32,0.00,3,Snow,305
2014-2-22,13,5,-3,3,-4,-9,76,69,61,30.23,30.09,29.92,10,10,10,22,14,25,0.00,0,,288
2014-2-23,14,6,-2,3,-2,-9,79,70,61,30.42,30.34,30.24,10,10,10,22,14,28,0.00,2,,295
2014-2-24,4,-3,-11,-2,-9,-17,72,68,64,30.48,30.43,30.37,10,7,2,18,8,22,T,5,Snow,303
2014-2-25,1,-5,-12,-9,-13,-18,72,67,61,30.53,30.46,30.39,10,9,5,23,12,26,0.00,2,,300
2014-2-26,16,3,-10,7,-3,-19,79,69,59,30.37,29.93,29.72,10,6,0,33,19,39,T,5,Snow,324
2014-2-27,-1,-10,-20,-10,-19,-28,70,59,47,30.31,30.19,29.97,10,10,10,21,8,28,0.00,2,,157
2014-2-28,11,2,-8,1,-8,-17,75,68,61,30.43,30.04,29.83,10,10,8,31,18,36,0.00,3,Snow,321